[[{"header":{"parameterUnit":"m.s-1","parameterCategory":2,"la1":30.2991,"la2":30.254,"lo1":-89.0895,"lo2":-89.0444,"dy":0.0017,"dx":0.0017,"nx":28,"ny":28,"refTime":"2025-04-22T09:00:00:Z","depth":"0","parameterNumber":2,"parameterNumberName":"U-component_of_CURRENTS"},"data":[0,0,0,0,0,0,0,0,0,0,0,0,0,0,0,0,0,0,0,0,0,0,0,0,0,0,0,0,0,0,0,0,0,0,0,0,0,0,0,0,0,0,0,0,0,0,0,0,0,0,0,0,0,0,0,0,0,0,0.2028,0.2029,0,0.2058,0.2058,0.2058,0.2092,0.2093,0.2094,0.2094,0.2064,0.2062,0.2061,0,0,0,0,0,0,0,0,0,0,0,0,0,0.1944,0.1945,0.2028,0.2029,0.2029,0.2058,0.2058,0.2058,0.2092,0.2093,0.2094,0.2095,0.2064,0.2063,0.2061,0,0,0,0,0,0,0,0,0,0,0,0,0,0.1974,0.1946,0.2028,0.2052,0.2055,0.2058,0.2058,0.2058,0.2091,0.2093,0.2094,0.2095,0.2065,0.2063,0.206,0.202,0,0,0.2053,0.2052,0,0,0,0,0,0,0,0,0.1972,0.1977,0.2048,0.2051,0.2054,0.2076,0.2018,0.2044,0.2091,0.2073,0.2094,0.2096,0.2064,0.2062,0.206,0.2019,0.2017,0.2053,0.2051,0.205,0.205,0,0,0,0,0,0,0,0.197,0.1975,0.2036,0.2049,0.2052,0.2043,0.2049,0.2022,0.2057,0.2075,0.2079,0.2088,0.2065,0.2062,0.2059,0.2017,0.2053,0.2051,0.2049,0.2048,0.2014,0.2014,0,0,0,0,0,0,0.1976,0.1974,0.2035,0.2037,0.202,0.2044,0.2051,0.2064,0.2059,0.2061,0.2087,0.2089,0.2066,0.2062,0.2058,0.2072,0.205,0.2048,0.2047,0.2013,0.2014,0.2015,0,0,0,0,0,0,0.1974,0.1982,0.2034,0.2009,0.2015,0.2045,0.206,0.2064,0.2073,0.2069,0.2069,0.2093,0.2066,0.2062,0.2056,0.2068,0.2047,0.2045,0.2013,0.2014,0.2014,0.2059,0,0,0,0,0,0,0.1972,0.1981,0.1984,0.201,0.2017,0.2039,0.2059,0.2064,0.2078,0.2082,0.2073,0.2072,0.2067,0.206,0.2054,0.2065,0.2043,0.2012,0.2013,0.2014,0.2057,0.2061,0.2065,0,0,0,0,0,0.1969,0.1969,0.1984,0.1992,0.2025,0.2039,0.2041,0.2064,0.2077,0.2076,0.2085,0.2073,0.2063,0.2058,0.2051,0.2061,0.2012,0.2013,0.2014,0.2055,0.206,0.2064,0,0,0,0,0,0,0.1923,0.1973,0.1991,0.2004,0.2023,0.2047,0.2046,0.2063,0.2068,0.2072,0.2071,0.2069,0.2076,0.2056,0.2052,0.2056,0.2037,0.2037,0.2071,0.2075,0.2079,0.2093,0.2041,0,0,0,0,0,0.1918,0.1937,0.1976,0.1983,0.1995,0.202,0.2027,0.2045,0.2058,0.2062,0.2063,0.2063,0.207,0.2064,0.206,0.2047,0.2068,0.2051,0.2055,0.2059,0.2065,0.2112,0.2122,0.2019,0.2019,0.2019,0,0,0.1896,0.1931,0.1936,0.1975,0.1991,0.2011,0.2026,0.2039,0.206,0.2054,0.207,0.2074,0.2072,0.2078,0.2077,0.2063,0.2103,0.206,0.2064,0.2068,0.2115,0.2125,0.2134,0.2019,0.2019,0.2019,0,0,0.1873,0.1899,0.1912,0.1936,0.1973,0.1994,0.2001,0.203,0.2046,0.2058,0.2076,0.2094,0.2079,0.2098,0.2103,0.2119,0.2128,0.2111,0.2134,0.218,0.2189,0.2197,0.2257,0.227,0.2107,0.2107,0.2107,0,0.1844,0.1879,0.1911,0.1937,0.1958,0.1991,0.2007,0.2027,0.2052,0.2067,0.2067,0.21,0.2096,0.213,0.2145,0.213,0.2161,0.2117,0.2187,0.2195,0.2203,0.2262,0.2276,0.2109,0.2109,0.2109,0.2108,0,0.1843,0.1871,0.1877,0.1932,0.1952,0.1967,0.2012,0.2028,0.2051,0.2079,0.2116,0.2128,0.215,0.2155,0.2154,0.2207,0.2215,0.2194,0.2179,0.2217,0.2276,0.229,0.2112,0.2111,0.2111,0.211,0,0,0.1781,0.1861,0.1865,0.1893,0.1954,0.1968,0.2004,0.2047,0.2081,0.2107,0.2152,0.2178,0.2196,0.2203,0.2213,0.2251,0.234,0.2246,0.2247,0.2313,0.246,0.2512,0.2532,0.2334,0.2336,0.2337,0.2487,0,0.177,0.1818,0.1864,0.1899,0.1924,0.1972,0.2007,0.205,0.2091,0.2139,0.2176,0.2219,0.2212,0.2233,0.2273,0.2324,0.2376,0.2303,0.2406,0.241,0.2458,0.255,0.2537,0.2673,0.2501,0.2503,0.2505,0,0.176,0.1798,0.1833,0.1901,0.1915,0.1939,0.2003,0.204,0.2118,0.2156,0.2211,0.2247,0.2319,0.2301,0.2421,0.2376,0.2424,0.2463,0.2469,0.251,0.2488,0.2602,0.2704,0.2556,0.2526,0.2524,0.2523,0,0.1711,0.1776,0.1804,0.1826,0.1905,0.1921,0.1959,0.2036,0.2078,0.2172,0.2216,0.2303,0.2355,0.2426,0.2508,0.2471,0.2647,0.26,0.2698,0.2702,0.2709,0.271,0.2686,0.2692,0.2692,0.2692,0.2691,0,0.1694,0.1712,0.178,0.1796,0.1826,0.1887,0.1932,0.1989,0.2077,0.2142,0.2218,0.2296,0.2389,0.2492,0.2548,0.2691,0.2684,0.2738,0.2756,0.2726,0.2727,0.261,0.2522,0.2697,0.2696,0.2695,0.2694,0,0.1641,0.1689,0.1719,0.1788,0.1806,0.1824,0.1906,0.1942,0.2038,0.2127,0.216,0.231,0.247,0.2573,0.2718,0.2756,0.2803,0.2915,0.2888,0.29,0.2841,0.2759,0.2733,0.2656,0.3056,0.3059,0.3061,0,0.1621,0.1632,0.1695,0.1705,0.1732,0.1772,0.1802,0.1907,0.196,0.2142,0.2184,0.237,0.2509,0.2762,0.2895,0.3051,0.2898,0.3103,0.3026,0.2871,0.2791,0.2652,0.2576,0.3058,0.306,0.3061,0.3062,0,0.1571,0.1591,0.1616,0.1646,0.1669,0.1706,0.1764,0.1806,0.1945,0.2045,0.2211,0.2341,0.2631,0.2807,0.3026,0.3125,0.295,0.3139,0.2979,0.281,0.2657,0.2579,0.2923,0.3076,0.3074,0.3073,0.3073,0.3072,0.1517,0.1522,0.1555,0.1575,0.1602,0.1632,0.1648,0.1741,0.184,0.1994,0.2168,0.2354,0.2649,0.298,0.3062,0.3144,0.3056,0.307,0.2995,0.2877,0.2758,0.315,0.3312,0.3312,0.3312,0.3312,0.3312,0,0.1439,0.1459,0.148,0.1505,0.1505,0.155,0.1612,0.1636,0.1735,0.1927,0.2086,0.2395,0.2616,0.2835,0.3034,0.2972,0.2868,0.2882,0.2642,0.2581,0.2949,0.2901,0.298,0.298,0.298,0.298,0.298,0.298,0.1397,0.1392,0.1414,0.14,0.1414,0.141,0.143,0.1499,0.1618,0.1812,0.1983,0.2176,0.2473,0.2714,0.2742,0.2722,0.2455,0.2428,0.2308,0.2509,0.2517,0.2525,0.2456,0.2441,0.244,0.1895,0.1891,0.1887]},{"header":{"parameterUnit":"m.s-1","parameterCategory":2,"la1":30.2991,"la2":30.254,"lo1":-89.0895,"lo2":-89.0444,"dy":0.0017,"dx":0.0017,"nx":28,"ny":28,"refTime":"2025-04-22T09:00:00:Z","depth":"0","parameterNumber":3,"parameterNumberName":"V-component_of_CURRENTS"},"data":[0,0,0,0,0,0,0,0,0,0,0,0,0,0,0,0,0,0,0,0,0,0,0,0,0,0,0,0,0,0,0,0,0,0,0,0,0,0,0,0,0,0,0,0,0,0,0,0,0,0,0,0,0,0,0,0,0,0,0.0249,0.0249,0,0.0203,0.0202,0.0202,0.0181,0.0181,0.0181,0.0181,0.0085,0.0082,0.0079,0,0,0,0,0,0,0,0,0,0,0,0,0,0.0311,0.031,0.025,0.0249,0.0248,0.0203,0.0202,0.0202,0.0181,0.0181,0.0181,0.0181,0.0085,0.0082,0.0079,0,0,0,0,0,0,0,0,0,0,0,0,0,0.0276,0.0309,0.025,0.0233,0.0231,0.0203,0.0202,0.0201,0.0181,0.0181,0.0181,0.0181,0.0086,0.0083,0.0079,0.0051,0,0,0.0066,0.0065,0,0,0,0,0,0,0,0,0.0278,0.0273,0.0236,0.0234,0.0232,0.0198,0.0188,0.0149,0.0181,0.0199,0.0181,0.0181,0.0118,0.0112,0.0102,0.0046,0.0042,0.0066,0.0064,0.0062,0.0061,0,0,0,0,0,0,0,0.028,0.0275,0.0231,0.0235,0.0233,0.0224,0.022,0.0181,0.0157,0.0198,0.0196,0.0192,0.0117,0.0106,0.01,0.0041,0.0066,0.0063,0.006,0.0059,-0.0059,-0.006,0,0,0,0,0,0,0.0287,0.0277,0.0232,0.0229,0.0256,0.0223,0.0218,0.0209,0.0159,0.0152,0.0192,0.0191,0.0113,0.0105,0.0096,0.0066,0.0062,0.0058,0.0056,-0.0058,-0.0059,-0.006,0,0,0,0,0,0,0.0288,0.0283,0.0234,0.0253,0.0246,0.0222,0.0212,0.0208,0.0199,0.0155,0.0147,0.0188,0.0113,0.0102,0.0056,0.0061,0.0056,0.0053,-0.0057,-0.0058,-0.0059,0.0,0,0,0,0,0,0,0.029,0.0284,0.0284,0.0253,0.0245,0.0223,0.0211,0.0207,0.0196,0.0195,0.0149,0.014,0.0112,0.0062,0.0052,0.0056,0.005,-0.0056,-0.0058,-0.0059,-0.0001,0.0001,0.0003,0,0,0,0,0,0.0292,0.0296,0.0285,0.0279,0.0245,0.0223,0.0219,0.0202,0.0196,0.0194,0.0155,0.0142,0.0047,0.0058,0.0047,0.0049,-0.0056,-0.0057,-0.0059,-0.0002,0.0001,0.0003,0,0,0,0,0,0,0.0332,0.0293,0.028,0.0274,0.0252,0.022,0.022,0.0204,0.0173,0.0171,0.0128,0.0116,0.0078,0.0049,0.0062,0.0009,-0.0005,-0.0009,0.0042,0.0044,0.0046,0.0077,0.0046,0,0,0,0,0,0.0338,0.0327,0.0291,0.0288,0.0277,0.0247,0.0238,0.0224,0.0191,0.0179,0.0143,0.0101,0.0061,0.0042,0.0,-0.0029,-0.0044,-0.0037,-0.0034,-0.0032,-0.0017,-0.0041,-0.0039,-0.0065,-0.0065,-0.0065,0,0,0.0353,0.0332,0.0326,0.0295,0.0277,0.0269,0.0243,0.023,0.0223,0.0171,0.0148,0.0103,0.0051,0.0018,-0.0,-0.0003,-0.0034,-0.0034,-0.0032,-0.0018,-0.0043,-0.004,-0.0037,-0.0066,-0.0066,-0.0066,0,0,0.038,0.0357,0.0356,0.0339,0.0312,0.029,0.0287,0.0251,0.0234,0.02,0.0161,0.0124,0.006,0.0032,0.0008,-0.0006,-0.0027,-0.0026,0.0017,-0.0007,-0.0004,-0.0002,-0.0015,-0.0014,-0.0019,-0.0018,-0.0018,0,0.0398,0.0394,0.0356,0.0355,0.035,0.0302,0.0308,0.0279,0.0233,0.0224,0.0199,0.0119,0.0073,0.0044,0.0036,0.0003,-0.0013,0.0017,-0.0001,0.0001,0.0003,-0.0011,-0.0011,-0.0016,-0.0016,-0.0016,-0.0017,0,0.0425,0.0423,0.0424,0.0402,0.0393,0.0388,0.0347,0.0329,0.0299,0.0272,0.0231,0.0165,0.0127,0.0098,0.006,0.0046,0.003,0.0004,0.0003,0.001,-0.0007,-0.0007,-0.0012,-0.0013,-0.0014,-0.0014,0,0,0.0451,0.0442,0.0441,0.0449,0.0418,0.0413,0.0401,0.0378,0.038,0.032,0.0322,0.0239,0.021,0.018,0.0128,0.0101,0.0089,0.0061,0.0059,0.0068,0.0044,0.0039,0.0037,0.0059,0.0059,0.0059,0.0031,0,0.048,0.0496,0.0483,0.0502,0.0508,0.0475,0.0472,0.0447,0.0415,0.04,0.0333,0.0304,0.0238,0.0222,0.0185,0.011,0.0088,0.0099,0.0021,0.0019,0.0029,0.0036,0.0057,0.0034,0.003,0.003,0.0029,0,0.051,0.0516,0.0543,0.0557,0.0557,0.0562,0.0561,0.0552,0.0518,0.0497,0.0463,0.0406,0.0356,0.0298,0.0198,0.0207,0.0137,0.0078,0.0075,0.0053,0.0012,0.0023,0.0032,-0.0122,0.0028,0.0028,0.0028,0,0.0549,0.0561,0.0587,0.0589,0.0591,0.0604,0.0603,0.0585,0.0591,0.0564,0.0567,0.0494,0.0465,0.0366,0.024,0.0218,0.0135,0.009,0.0023,0.0022,0.0017,0.0016,-0.0114,0.0031,0.0031,0.0031,0.0032,0,0.0588,0.0609,0.0608,0.0621,0.0659,0.0648,0.0683,0.0676,0.0676,0.0701,0.0622,0.0627,0.0479,0.0407,0.0282,0.0161,0.017,0.0042,0.0017,0.0037,0.0037,-0.0116,-0.0195,0.003,0.0031,0.0031,0.0031,0,0.0635,0.0631,0.0664,0.0672,0.0681,0.071,0.0742,0.0766,0.0759,0.0794,0.0791,0.0731,0.0646,0.0498,0.0349,0.0229,0.0032,0.0059,0.01,0.008,-0.0137,-0.0211,-0.0325,-0.0376,-0.002,-0.0021,-0.0021,0,0.0662,0.0681,0.0705,0.0727,0.0735,0.0772,0.0801,0.0811,0.0844,0.0861,0.0886,0.0823,0.0802,0.0588,0.0374,0.018,0.0039,0.0055,0.001,-0.0136,-0.0239,-0.0281,-0.0319,0.0025,0.0025,0.0025,0.0025,0,0.0711,0.0716,0.0738,0.0783,0.0818,0.0869,0.0913,0.0955,0.0977,0.1013,0.1055,0.1045,0.0856,0.0689,0.0422,0.0261,-0.0035,0.0051,-0.0115,-0.0219,-0.0259,-0.0323,0.0031,0.0026,0.0026,0.0026,0.0026,0.0026,0.0744,0.0771,0.0795,0.0843,0.0886,0.0958,0.1014,0.1073,0.1152,0.1229,0.1207,0.124,0.0977,0.0625,0.0387,-0.004,-0.0036,-0.0174,-0.0252,-0.0282,-0.0334,0.0031,0.0002,0.0002,0.0002,0.0002,0.0002,0,0.0779,0.0806,0.0852,0.0909,0.0966,0.0986,0.108,0.1147,0.1257,0.1352,0.1407,0.1318,0.098,0.0597,0.0037,-0.0276,-0.0387,-0.0462,-0.0535,-0.056,-0.025,-0.0254,-0.0322,-0.0321,-0.0321,-0.0321,-0.0321,-0.0321,0.0798,0.0842,0.0866,0.0963,0.101,0.1103,0.1167,0.1277,0.1366,0.149,0.1533,0.1542,0.1223,0.0241,-0.0445,-0.06,-0.0813,-0.0848,-0.0961,-0.0785,-0.0765,-0.0746,-0.077,-0.0944,-0.0945,-0.1217,-0.122,-0.1222]}],[{"header":{"parameterUnit":"m.s-1","parameterCategory":2,"la1":30.2991,"la2":30.254,"lo1":-89.0895,"lo2":-89.0444,"dy":0.0017,"dx":0.0017,"nx":28,"ny":28,"refTime":"2025-04-22T09:00:00:Z","depth":"2","parameterNumber":2,"parameterNumberName":"U-component_of_CURRENTS"},"data":[0,0,0,0,0,0,0,0,0,0,0,0,0,0,0,0,0,0,0,0,0,0,0,0,0,0,0,0,0,0,0,0,0,0,0,0,0,0,0,0,0,0,0,0,0,0,0,0,0,0,0,0,0,0,0,0,0,0,0.1489,0.1489,0,0.1465,0.1464,0.1464,0.1502,0.1504,0.1506,0.1507,0.1542,0.1542,0.1541,0,0,0,0,0,0,0,0,0,0,0,0,0,0.1562,0.156,0.1489,0.1489,0.1489,0.1465,0.1464,0.1463,0.1502,0.1504,0.1506,0.1508,0.1542,0.1542,0.1541,0,0,0,0,0,0,0,0,0,0,0,0,0,0.153,0.156,0.1489,0.1508,0.151,0.1465,0.1464,0.1463,0.1502,0.1504,0.1507,0.1509,0.1543,0.1542,0.1541,0.1486,0,0,0.1538,0.1538,0,0,0,0,0,0,0,0,0.1532,0.1527,0.1505,0.1506,0.1508,0.1492,0.1503,0.1475,0.1501,0.1501,0.1507,0.151,0.1531,0.1531,0.1516,0.1487,0.1489,0.1538,0.1537,0.1537,0.1537,0,0,0,0,0,0,0,0.1534,0.1528,0.1476,0.1505,0.1507,0.1516,0.1513,0.1497,0.1501,0.1501,0.1505,0.1507,0.1533,0.1516,0.1517,0.1489,0.1538,0.1537,0.1537,0.1536,0.15,0.1499,0,0,0,0,0,0,0.1541,0.153,0.1477,0.1475,0.153,0.1513,0.151,0.1492,0.15,0.1504,0.1505,0.1509,0.1517,0.1518,0.1519,0.1552,0.1537,0.1536,0.1536,0.15,0.15,0.1499,0,0,0,0,0,0,0.1542,0.1535,0.1478,0.1507,0.15,0.1509,0.1488,0.149,0.1505,0.1503,0.1508,0.1522,0.1519,0.152,0.1521,0.155,0.1536,0.1535,0.1501,0.15,0.1499,0.1555,0,0,0,0,0,0,0.1544,0.1535,0.1528,0.1506,0.1499,0.1468,0.1486,0.1488,0.1502,0.1508,0.1518,0.1522,0.1521,0.1522,0.152,0.1549,0.1534,0.1501,0.15,0.15,0.1554,0.1557,0.1559,0,0,0,0,0,0.1546,0.152,0.1527,0.1522,0.1487,0.1468,0.1465,0.1478,0.1501,0.1501,0.1508,0.1523,0.1516,0.152,0.1518,0.1548,0.1502,0.1501,0.15,0.1553,0.1556,0.1559,0,0,0,0,0,0,0.1531,0.1521,0.1529,0.1497,0.1496,0.1477,0.1475,0.1487,0.1489,0.1505,0.1509,0.1511,0.1523,0.1514,0.1518,0.153,0.1514,0.1513,0.1556,0.1559,0.1561,0.1585,0.1533,0,0,0,0,0,0.1526,0.1516,0.1507,0.1484,0.1485,0.1485,0.1483,0.1496,0.1493,0.1498,0.1504,0.1508,0.1507,0.1519,0.1506,0.1509,0.1528,0.1526,0.1528,0.1531,0.1546,0.1593,0.1603,0.1496,0.1496,0.1496,0,0,0.1512,0.1508,0.15,0.1483,0.1482,0.1477,0.149,0.1492,0.1502,0.1499,0.1512,0.1511,0.1504,0.1511,0.1517,0.1518,0.1568,0.1529,0.1532,0.1546,0.1593,0.1604,0.1614,0.1495,0.1496,0.1496,0,0,0.1482,0.1478,0.1467,0.147,0.1481,0.1481,0.149,0.1489,0.1507,0.1507,0.1515,0.1533,0.1521,0.1534,0.1536,0.1539,0.1572,0.1539,0.1588,0.1633,0.1644,0.1653,0.1692,0.1705,0.1552,0.1553,0.1553,0,0.1475,0.1457,0.146,0.1457,0.147,0.1488,0.1491,0.1494,0.1498,0.1521,0.1522,0.1539,0.1534,0.1567,0.1572,0.1551,0.1582,0.1584,0.1642,0.1651,0.166,0.1698,0.1711,0.1555,0.1555,0.1555,0.1554,0,0.1436,0.144,0.1434,0.1445,0.1452,0.1459,0.1476,0.1495,0.1523,0.1538,0.158,0.1574,0.1604,0.1597,0.1588,0.165,0.1653,0.1635,0.1646,0.1675,0.1711,0.1724,0.1559,0.1558,0.1557,0.1556,0,0,0.1388,0.1409,0.1413,0.144,0.146,0.1467,0.1488,0.1523,0.1564,0.1579,0.1636,0.1639,0.1673,0.1677,0.1682,0.1717,0.1797,0.1714,0.1716,0.1774,0.1911,0.1973,0.1993,0.1805,0.1808,0.181,0.1913,0,0.1373,0.1384,0.1394,0.1423,0.1439,0.1477,0.1501,0.154,0.1577,0.1629,0.1666,0.1706,0.1694,0.173,0.1768,0.1785,0.1834,0.1771,0.1855,0.1858,0.1928,0.2011,0.1746,0.1822,0.1925,0.1927,0.1929,0,0.134,0.1363,0.1392,0.1456,0.1467,0.149,0.157,0.1592,0.1661,0.1697,0.1762,0.1789,0.1858,0.1834,0.1924,0.1893,0.1918,0.1923,0.1927,0.198,0.1945,0.1806,0.1841,0.195,0.1948,0.1947,0.1945,0,0.133,0.1368,0.1408,0.1424,0.1482,0.1524,0.1563,0.1627,0.1666,0.1757,0.1803,0.1884,0.1938,0.1986,0.2023,0.1988,0.2114,0.206,0.2138,0.2141,0.193,0.1913,0.2133,0.2133,0.2133,0.2132,0.2132,0,0.1318,0.1353,0.1419,0.144,0.1503,0.1546,0.1618,0.1662,0.1742,0.1798,0.1857,0.1923,0.1982,0.2057,0.2073,0.2175,0.2169,0.2182,0.2191,0.1942,0.1925,0.2036,0.2023,0.2136,0.2135,0.2135,0.2134,0,0.1305,0.1343,0.139,0.1468,0.1498,0.1548,0.1637,0.168,0.1765,0.1843,0.188,0.1981,0.2101,0.2158,0.224,0.2254,0.232,0.2348,0.2063,0.2041,0.2297,0.2285,0.2454,0.2457,0.246,0.2463,0.2465,0,0.1301,0.1324,0.1401,0.1431,0.1474,0.1552,0.1595,0.1683,0.1725,0.1874,0.1906,0.206,0.2168,0.2339,0.2325,0.24,0.2439,0.2258,0.2152,0.2348,0.2339,0.2323,0.2307,0.1869,0.1866,0.1863,0.1861,0,0.1287,0.1317,0.1351,0.1409,0.1463,0.1517,0.1592,0.1632,0.1739,0.1833,0.197,0.2083,0.2215,0.2198,0.2316,0.2306,0.2229,0.2221,0.2489,0.1864,0.1815,0.1801,0.1801,0.184,0.1842,0.1844,0.1845,0.1846,0.1271,0.1286,0.1324,0.1381,0.1429,0.1477,0.151,0.1591,0.1684,0.1761,0.1894,0.1975,0.2013,0.2066,0.2062,0.2047,0.2188,0.2098,0.2095,0.2098,0.2048,0.2011,0.2061,0.2064,0.2067,0.207,0.2072,0,0.1238,0.1257,0.1293,0.1344,0.1374,0.1425,0.1493,0.1514,0.1606,0.1647,0.1732,0.1624,0.1661,0.1746,0.1665,0.1734,0.16,0.1718,0.1487,0.1511,0.1532,0.1443,0.1301,0.1299,0.1297,0.1296,0,0,0.1218,0.1227,0.1245,0.1276,0.132,0.1348,0.1381,0.142,0.145,0.1424,0.1407,0.1447,0.1633,0.1388,0.1397,0.1351,0.1405,0.1299,0.1905,0.1649,0.1667,0.1738,0.1631,0,0,0,0,0]},{"header":{"parameterUnit":"m.s-1","parameterCategory":2,"la1":30.2991,"la2":30.254,"lo1":-89.0895,"lo2":-89.0444,"dy":0.0017,"dx":0.0017,"nx":28,"ny":28,"refTime":"2025-04-22T09:00:00:Z","depth":"2","parameterNumber":3,"parameterNumberName":"V-component_of_CURRENTS"},"data":[0,0,0,0,0,0,0,0,0,0,0,0,0,0,0,0,0,0,0,0,0,0,0,0,0,0,0,0,0,0,0,0,0,0,0,0,0,0,0,0,0,0,0,0,0,0,0,0,0,0,0,0,0,0,0,0,0,0,-0.0829,-0.0829,0,-0.0863,-0.0863,-0.0863,-0.0876,-0.0876,-0.0876,-0.0876,-0.094,-0.0942,-0.0944,0,0,0,0,0,0,0,0,0,0,0,0,0,-0.0756,-0.0757,-0.0829,-0.0829,-0.083,-0.0863,-0.0863,-0.0864,-0.0876,-0.0876,-0.0876,-0.0876,-0.094,-0.0942,-0.0944,0,0,0,0,0,0,0,0,0,0,0,0,0,-0.0788,-0.0757,-0.0829,-0.084,-0.0842,-0.0863,-0.0863,-0.0864,-0.0876,-0.0876,-0.0876,-0.0876,-0.0939,-0.0942,-0.0944,-0.0962,0,0,-0.0952,-0.0953,0,0,0,0,0,0,0,0,-0.0786,-0.079,-0.0838,-0.084,-0.0841,-0.0866,-0.0861,-0.0898,-0.0876,-0.0862,-0.0876,-0.0876,-0.0919,-0.0923,-0.0928,-0.0965,-0.0968,-0.0953,-0.0954,-0.0955,-0.0956,0,0,0,0,0,0,0,-0.0784,-0.0789,-0.0841,-0.0839,-0.0841,-0.0838,-0.0842,-0.0868,-0.089,-0.0863,-0.0864,-0.087,-0.092,-0.0925,-0.093,-0.0969,-0.0952,-0.0955,-0.0956,-0.0957,-0.103,-0.1031,0,0,0,0,0,0,-0.0782,-0.0787,-0.084,-0.0843,-0.0814,-0.0839,-0.0844,-0.0857,-0.0889,-0.0894,-0.087,-0.087,-0.0921,-0.0927,-0.0932,-0.0962,-0.0955,-0.0958,-0.0959,-0.103,-0.103,-0.1031,0,0,0,0,0,0,-0.0781,-0.0787,-0.0839,-0.0815,-0.0822,-0.0841,-0.0855,-0.0858,-0.0862,-0.0894,-0.0899,-0.0871,-0.0921,-0.0928,-0.0953,-0.0964,-0.0959,-0.0961,-0.103,-0.103,-0.1031,-0.1018,0,0,0,0,0,0,-0.0779,-0.0787,-0.0791,-0.0816,-0.0823,-0.0846,-0.0855,-0.0859,-0.0866,-0.0867,-0.0897,-0.0903,-0.0922,-0.0949,-0.0956,-0.0968,-0.0963,-0.1029,-0.103,-0.103,-0.1018,-0.1018,-0.1018,0,0,0,0,0,-0.0776,-0.0781,-0.0791,-0.0798,-0.0831,-0.0846,-0.085,-0.0862,-0.0866,-0.0866,-0.0888,-0.0902,-0.0958,-0.0952,-0.0959,-0.0972,-0.1029,-0.103,-0.103,-0.1018,-0.1018,-0.1018,0,0,0,0,0,0,-0.0747,-0.0784,-0.0795,-0.0811,-0.0826,-0.0849,-0.0846,-0.086,-0.0877,-0.0874,-0.0906,-0.0914,-0.0939,-0.0957,-0.0949,-0.0995,-0.0996,-0.0999,-0.0984,-0.0984,-0.0984,-0.0957,-0.0966,0,0,0,0,0,-0.0745,-0.076,-0.0791,-0.0799,-0.0805,-0.0826,-0.0833,-0.0842,-0.0862,-0.0868,-0.0895,-0.0922,-0.0949,-0.0966,-0.0988,-0.1016,-0.1019,-0.1029,-0.1029,-0.1029,-0.1013,-0.1031,-0.1031,-0.1033,-0.1033,-0.1033,0,0,-0.0731,-0.0756,-0.0761,-0.0793,-0.0803,-0.0809,-0.0829,-0.0834,-0.0842,-0.0874,-0.0893,-0.0921,-0.0954,-0.0982,-0.0996,-0.0999,-0.1032,-0.103,-0.103,-0.1013,-0.1032,-0.1032,-0.1032,-0.1034,-0.1034,-0.1034,0,0,-0.0711,-0.0736,-0.0739,-0.0752,-0.0772,-0.0789,-0.079,-0.0816,-0.083,-0.0854,-0.088,-0.0911,-0.0954,-0.0981,-0.1001,-0.1014,-0.1027,-0.1028,-0.1013,-0.1032,-0.1032,-0.1031,-0.1037,-0.1037,-0.1033,-0.1033,-0.1033,0,-0.0684,-0.0706,-0.0739,-0.0744,-0.0748,-0.0779,-0.0775,-0.0796,-0.0829,-0.0841,-0.0855,-0.0915,-0.0951,-0.0983,-0.0993,-0.1014,-0.102,-0.1011,-0.1031,-0.1031,-0.103,-0.1036,-0.1037,-0.1032,-0.1033,-0.1033,-0.1033,0,-0.0673,-0.0683,-0.0681,-0.0703,-0.0715,-0.0712,-0.0748,-0.0763,-0.0788,-0.0813,-0.0847,-0.0895,-0.0922,-0.0956,-0.0982,-0.1005,-0.1007,-0.1025,-0.1027,-0.1029,-0.1036,-0.1036,-0.1032,-0.1032,-0.1032,-0.1032,0,0,-0.0617,-0.0662,-0.0657,-0.0658,-0.069,-0.0692,-0.0714,-0.0739,-0.0742,-0.079,-0.0794,-0.0866,-0.0882,-0.0904,-0.0945,-0.098,-0.0999,-0.1002,-0.1003,-0.1,-0.1029,-0.0965,-0.0959,-0.1021,-0.1021,-0.1021,-0.1034,0,-0.0587,-0.0587,-0.0624,-0.0611,-0.0611,-0.0647,-0.0661,-0.0689,-0.0722,-0.0736,-0.0793,-0.0808,-0.0866,-0.0871,-0.0916,-0.0971,-0.1,-0.0993,-0.1032,-0.1033,-0.097,-0.0957,-0.0903,-0.0904,-0.1035,-0.1035,-0.1035,0,-0.0559,-0.0566,-0.0551,-0.0568,-0.0568,-0.0563,-0.0579,-0.0598,-0.0638,-0.066,-0.0691,-0.0724,-0.077,-0.0814,-0.0903,-0.0894,-0.0952,-0.1005,-0.1007,-0.0946,-0.0969,-0.0924,-0.09,-0.1036,-0.1036,-0.1036,-0.1036,0,-0.0503,-0.051,-0.0495,-0.0498,-0.0523,-0.0515,-0.0526,-0.0564,-0.057,-0.0595,-0.0589,-0.0653,-0.0665,-0.0749,-0.0855,-0.0874,-0.0949,-0.0986,-0.0982,-0.0979,-0.0937,-0.0928,-0.1038,-0.1038,-0.1038,-0.1038,-0.1038,0,-0.046,-0.0443,-0.0458,-0.0446,-0.0413,-0.0453,-0.0427,-0.0453,-0.0471,-0.0456,-0.0528,-0.0517,-0.0651,-0.0711,-0.0816,-0.0885,-0.0913,-0.096,-0.0971,-0.093,-0.0921,-0.104,-0.1041,-0.1039,-0.1039,-0.1039,-0.1038,0,-0.04,-0.0415,-0.0392,-0.0396,-0.0385,-0.0359,-0.0351,-0.0341,-0.0366,-0.0342,-0.0336,-0.0408,-0.0475,-0.061,-0.0743,-0.0813,-0.0902,-0.0926,-0.0857,-0.0859,-0.093,-0.093,-0.0905,-0.0903,-0.0901,-0.0899,-0.0898,0,-0.0369,-0.0354,-0.0335,-0.031,-0.0302,-0.027,-0.0252,-0.0276,-0.0264,-0.0268,-0.0246,-0.0296,-0.0286,-0.0446,-0.0602,-0.0735,-0.0839,-0.0786,-0.0808,-0.0899,-0.0914,-0.0917,-0.0919,-0.076,-0.0758,-0.0756,-0.0754,0,-0.031,-0.0304,-0.0285,-0.0237,-0.0201,-0.0164,-0.0135,-0.0099,-0.012,-0.0071,-0.0025,-0.0001,-0.0143,-0.024,-0.0433,-0.0541,-0.0755,-0.0746,-0.0866,-0.0788,-0.076,-0.0775,-0.0783,-0.0737,-0.0739,-0.074,-0.0741,-0.0742,-0.0257,-0.0232,-0.0211,-0.016,-0.012,-0.0059,-0.0007,0.0045,0.0125,0.0205,0.0178,0.0237,0.0045,-0.0129,-0.0318,-0.0548,-0.0579,-0.0671,-0.0679,-0.0688,-0.0655,-0.0623,-0.0568,-0.0569,-0.0569,-0.057,-0.057,0,-0.02,-0.0184,-0.0139,-0.0081,-0.0024,-0.0016,0.0064,0.0136,0.0278,0.036,0.0445,0.0351,0.0252,-0.0,-0.0281,-0.0441,-0.049,-0.0526,-0.0566,-0.0581,-0.0595,-0.0559,-0.0446,-0.0447,-0.0447,-0.0447,0,0,-0.0173,-0.0129,-0.0113,-0.001,0.0038,0.0125,0.0186,0.032,0.0407,0.0554,0.0602,0.0612,0.0336,0.0153,-0.0105,-0.0274,-0.0389,-0.0306,-0.0385,-0.0416,-0.0427,-0.0655,-0.0613,0,0,0,0,0]}],[{"header":{"parameterUnit":"m.s-1","parameterCategory":2,"la1":30.2991,"la2":30.254,"lo1":-89.0895,"lo2":-89.0444,"dy":0.0017,"dx":0.0017,"nx":28,"ny":28,"refTime":"2025-04-22T09:00:00:Z","depth":"4","parameterNumber":2,"parameterNumberName":"U-component_of_CURRENTS"},"data":[0,0,0,0,0,0,0,0,0,0,0,0,0,0,0,0,0,0,0,0,0,0,0,0,0,0,0,0,0,0,0,0,0,0,0,0,0,0,0,0,0,0,0,0,0,0,0,0,0,0,0,0,0,0,0,0,0,0,0.0797,0.0796,0,0.082,0.0821,0.0822,0.0911,0.0912,0.0913,0.0914,0.1014,0.1015,0.1017,0,0,0,0,0,0,0,0,0,0,0,0,0,0.077,0.0772,0.0797,0.0796,0.0795,0.082,0.0821,0.0823,0.0911,0.0912,0.0913,0.0914,0.1013,0.1015,0.1017,0,0,0,0,0,0,0,0,0,0,0,0,0,0.0797,0.0772,0.0797,0.0834,0.0837,0.082,0.0821,0.0823,0.091,0.0912,0.0913,0.0915,0.1013,0.1015,0.1018,0.1004,0,0,0.1026,0.1027,0,0,0,0,0,0,0,0,0.0796,0.08,0.0829,0.0831,0.0834,0.0854,0.0848,0.0884,0.091,0.0894,0.0914,0.0915,0.0959,0.0966,0.0982,0.1009,0.1013,0.1026,0.1027,0.1029,0.1029,0,0,0,0,0,0,0,0.0794,0.0799,0.0818,0.0828,0.0831,0.0828,0.0836,0.0856,0.0928,0.0896,0.0899,0.0884,0.0963,0.098,0.0985,0.1015,0.1026,0.1028,0.103,0.1031,0.1184,0.1186,0,0,0,0,0,0,0.077,0.0797,0.0817,0.0817,0.0805,0.0827,0.0836,0.0856,0.0927,0.0935,0.0882,0.0887,0.0974,0.0982,0.0989,0.1089,0.1029,0.1031,0.1033,0.1182,0.1185,0.1187,0,0,0,0,0,0,0.077,0.0773,0.0816,0.0796,0.08,0.0825,0.0847,0.0855,0.0902,0.0913,0.0926,0.0923,0.0976,0.0985,0.1044,0.109,0.1032,0.1035,0.1179,0.1182,0.1186,0.1218,0,0,0,0,0,0,0.077,0.0774,0.0792,0.0796,0.08,0.0846,0.0844,0.0854,0.0882,0.0891,0.0951,0.0961,0.0978,0.104,0.1046,0.1092,0.1037,0.1175,0.118,0.1185,0.1213,0.1222,0.1229,0,0,0,0,0,0.077,0.078,0.0794,0.0796,0.0822,0.0846,0.0852,0.0879,0.0883,0.0925,0.0957,0.096,0.1075,0.1043,0.105,0.1098,0.1173,0.1179,0.1184,0.121,0.122,0.1229,0,0,0,0,0,0,0.0781,0.0789,0.0805,0.0821,0.085,0.0858,0.0874,0.0891,0.0947,0.0955,0.0978,0.099,0.1049,0.1076,0.104,0.1161,0.113,0.1138,0.1148,0.1158,0.1165,0.114,0.1039,0,0,0,0,0,0.0787,0.0804,0.0818,0.0837,0.0847,0.0867,0.0879,0.0903,0.0933,0.0961,0.0999,0.1042,0.1072,0.1117,0.1141,0.1209,0.1199,0.1252,0.126,0.1267,0.1255,0.1269,0.1275,0.1206,0.1206,0.1206,0,0,0.0788,0.0797,0.0805,0.084,0.0858,0.0875,0.0885,0.0913,0.0961,0.0959,0.1044,0.1053,0.1089,0.1157,0.1192,0.1195,0.1288,0.1274,0.1279,0.1263,0.1275,0.1281,0.1287,0.1209,0.1209,0.1208,0,0,0.0791,0.0819,0.0835,0.086,0.0885,0.0895,0.0909,0.0945,0.101,0.1084,0.1076,0.1109,0.1203,0.1215,0.1236,0.1305,0.1304,0.1342,0.139,0.1404,0.1409,0.1413,0.1425,0.1429,0.1376,0.1376,0.1376,0,0.0796,0.0821,0.0845,0.0867,0.0876,0.0904,0.0925,0.0989,0.1051,0.1083,0.1132,0.1196,0.1225,0.1259,0.1301,0.1318,0.1331,0.1345,0.141,0.1414,0.1417,0.1428,0.1433,0.1378,0.1378,0.1378,0.1378,0,0.0804,0.0835,0.0844,0.088,0.0904,0.0927,0.0988,0.1049,0.1114,0.115,0.1229,0.1276,0.1314,0.1343,0.1355,0.1394,0.1397,0.1389,0.1374,0.1425,0.1435,0.1439,0.1382,0.1381,0.138,0.138,0,0,0.0784,0.084,0.0847,0.0875,0.0914,0.0935,0.1011,0.1069,0.1112,0.1215,0.1278,0.1343,0.1354,0.1378,0.1396,0.143,0.1475,0.1444,0.1444,0.1434,0.1519,0.1435,0.1431,0.1488,0.1489,0.1489,0.1521,0,0.0788,0.0828,0.0854,0.0896,0.0916,0.0964,0.1025,0.1083,0.1168,0.1244,0.1307,0.1369,0.1383,0.1421,0.1451,0.1452,0.1486,0.1467,0.1489,0.149,0.139,0.1433,0.1491,0.1524,0.1525,0.1525,0.1526,0,0.0783,0.0812,0.0851,0.0911,0.0925,0.0954,0.1027,0.1097,0.1184,0.126,0.1318,0.1369,0.1426,0.1454,0.1493,0.1489,0.1512,0.152,0.1522,0.1426,0.1412,0.1462,0.1533,0.1532,0.1532,0.1531,0.1531,0,0.0749,0.0811,0.0843,0.0863,0.0927,0.0968,0.1009,0.1083,0.1155,0.1269,0.1315,0.1384,0.1445,0.148,0.1523,0.1526,0.156,0.1559,0.1496,0.1491,0.1539,0.1534,0.1583,0.1583,0.1583,0.1583,0.1583,0,0.0729,0.0761,0.0837,0.0856,0.09,0.0957,0.1022,0.1081,0.117,0.1217,0.132,0.1372,0.1461,0.1502,0.153,0.152,0.1568,0.1495,0.149,0.1558,0.1555,0.1542,0.1537,0.1584,0.1584,0.1583,0.1583,0,0.0689,0.0736,0.0782,0.086,0.0887,0.0925,0.1025,0.1067,0.1157,0.123,0.1274,0.1376,0.143,0.1489,0.1541,0.1513,0.152,0.1505,0.1576,0.1575,0.1443,0.144,0.1438,0.1435,0.1433,0.1431,0.1429,0,0.0671,0.069,0.0775,0.0802,0.0844,0.0916,0.0952,0.1054,0.1096,0.1214,0.123,0.1328,0.139,0.1384,0.1454,0.1489,0.1479,0.1469,0.1451,0.1431,0.1427,0.1428,0.1428,0.1425,0.1425,0.1424,0.1423,0,0.0637,0.0673,0.071,0.0762,0.081,0.0862,0.0928,0.0949,0.1055,0.1141,0.1178,0.1229,0.1278,0.1331,0.1365,0.1387,0.1466,0.1445,0.145,0.1433,0.1416,0.1415,0.1418,0.1415,0.1416,0.1417,0.1418,0,0.0613,0.0626,0.0677,0.0718,0.077,0.0793,0.0838,0.0885,0.0939,0.1058,0.1065,0.1166,0.1253,0.1277,0.1307,0.1325,0.1318,0.1279,0.1293,0.1303,0.1247,0.1205,0.113,0,0,0,0,0,0.0589,0.0599,0.063,0.067,0.0716,0.0749,0.0811,0.0855,0.0947,0.0942,0.1006,0.1056,0.1117,0.1169,0.1167,0.1261,0.1325,0.1252,0.1286,0.137,0.1379,0.1327,0,0,0,0,0,0,0.0573,0.06,0.0611,0.0623,0.0641,0.0684,0.072,0.0774,0.0781,0.0877,0.0915,0.0997,0.1071,0.1113,0.1149,0.1167,0.1167,0.132,0.1318,0.1365,0.1373,0.1381,0.1331,0,0,0,0,0]},{"header":{"parameterUnit":"m.s-1","parameterCategory":2,"la1":30.2991,"la2":30.254,"lo1":-89.0895,"lo2":-89.0444,"dy":0.0017,"dx":0.0017,"nx":28,"ny":28,"refTime":"2025-04-22T09:00:00:Z","depth":"4","parameterNumber":3,"parameterNumberName":"V-component_of_CURRENTS"},"data":[0,0,0,0,0,0,0,0,0,0,0,0,0,0,0,0,0,0,0,0,0,0,0,0,0,0,0,0,0,0,0,0,0,0,0,0,0,0,0,0,0,0,0,0,0,0,0,0,0,0,0,0,0,0,0,0,0,0,0.0046,0.0047,0,0.0064,0.0064,0.0063,-0.0007,-0.0009,-0.001,-0.0012,-0.0056,-0.0056,-0.0056,0,0,0,0,0,0,0,0,0,0,0,0,0,0.0022,0.0022,0.0046,0.0047,0.0048,0.0064,0.0064,0.0063,-0.0007,-0.0009,-0.001,-0.0012,-0.0056,-0.0056,-0.0056,0,0,0,0,0,0,0,0,0,0,0,0,0,0.003,0.0022,0.0046,0.0019,0.0017,0.0064,0.0064,0.0063,-0.0006,-0.0009,-0.0011,-0.0013,-0.0057,-0.0056,-0.0056,-0.0007,0,0,-0.0055,-0.0055,0,0,0,0,0,0,0,0,0.0029,0.003,0.0022,0.0021,0.0019,0.0029,0.0039,0.0038,-0.0006,-0.0004,-0.0012,-0.0014,-0.0028,-0.003,-0.0029,-0.001,-0.0012,-0.0055,-0.0054,-0.0054,-0.0054,0,0,0,0,0,0,0,0.0029,0.0029,0.0047,0.0023,0.0022,0.0031,0.0028,0.0039,-0.0009,-0.0004,-0.0008,0.0005,-0.0031,-0.0029,-0.0031,-0.0012,-0.0055,-0.0054,-0.0054,-0.0054,-0.002,-0.0019,0,0,0,0,0,0,0.0037,0.0028,0.0047,0.0048,0.0025,0.0033,0.003,0.0023,-0.0008,-0.0012,0.0007,0.0001,-0.0029,-0.0031,-0.0033,-0.0044,-0.0054,-0.0054,-0.0054,-0.002,-0.0019,-0.0019,0,0,0,0,0,0,0.0036,0.0038,0.0046,0.0045,0.0047,0.0036,0.003,0.0025,0.0012,0.0002,-0.0006,-0.0003,-0.0031,-0.0033,-0.0047,-0.0044,-0.0054,-0.0054,-0.0021,-0.002,-0.0019,-0.0024,0,0,0,0,0,0,0.0035,0.0037,0.0036,0.0045,0.0047,0.0054,0.0032,0.0027,0.0027,0.0019,-0.0008,-0.0014,-0.0033,-0.0047,-0.0046,-0.0044,-0.0053,-0.0022,-0.0021,-0.0019,-0.0024,-0.0023,-0.0021,0,0,0,0,0,0.0034,0.0046,0.0035,0.0038,0.0045,0.0055,0.0055,0.0038,0.0029,0.0017,-0.0002,-0.0014,-0.0038,-0.0047,-0.0046,-0.0043,-0.0023,-0.0021,-0.0019,-0.0025,-0.0023,-0.0022,0,0,0,0,0,0,0.004,0.0042,0.0029,0.004,0.0038,0.0044,0.0049,0.0042,0.0022,0.0015,-0.0006,-0.0013,-0.002,-0.0023,-0.0032,-0.0026,-0.003,-0.0028,-0.0035,-0.0033,-0.0031,-0.0041,-0.0053,0,0,0,0,0,0.0043,0.0045,0.0046,0.0054,0.0054,0.0052,0.0057,0.0045,0.0036,0.0025,0.0008,-0.0002,-0.0005,-0.0017,-0.0017,-0.0013,-0.0026,-0.0009,-0.0007,-0.0006,-0.0011,-0.0023,-0.0024,-0.0013,-0.0013,-0.0013,0,0,0.0051,0.0054,0.0055,0.0055,0.0054,0.006,0.0046,0.0052,0.005,0.0027,0.0014,0.0007,0.0,-0.0005,-0.0007,-0.0016,-0.0015,-0.0004,-0.0004,-0.0009,-0.0022,-0.0023,-0.0024,-0.0012,-0.0013,-0.0013,0,0,0.0069,0.0065,0.0066,0.0066,0.0069,0.0072,0.0072,0.007,0.0052,0.0046,0.0034,0.0021,0.0016,0.0004,0.0001,0.0017,-0.0001,0.0024,0.0012,0.0001,-0.0001,-0.0002,-0.0024,-0.0027,0.0016,0.0016,0.0016,0,0.0074,0.0075,0.007,0.0073,0.0081,0.0076,0.0081,0.0076,0.0066,0.0058,0.0036,0.0029,0.0019,0.0018,0.0011,0.0018,0.0004,0.0002,0.0001,-0.0001,-0.0003,-0.0025,-0.0028,0.0016,0.0016,0.0016,0.0016,0,0.0086,0.0089,0.0095,0.0091,0.0096,0.0105,0.0101,0.0096,0.0083,0.0074,0.0059,0.0038,0.0025,0.0028,0.0016,0.0011,0.0002,0.0009,-0.001,-0.0005,-0.0027,-0.0031,0.0016,0.0016,0.0016,0.0016,0,0,0.0087,0.0098,0.0098,0.0099,0.0106,0.0113,0.0117,0.0114,0.0115,0.0087,0.0075,0.0057,0.0037,0.0033,0.0023,0.0005,-0.0024,-0.0006,-0.0007,-0.0039,-0.0062,-0.0067,-0.0072,-0.0022,-0.0023,-0.0023,-0.0076,0,0.0091,0.0102,0.0107,0.0121,0.0128,0.013,0.0136,0.0134,0.0121,0.0109,0.0079,0.0069,0.0043,0.0033,0.0008,-0.0004,-0.0033,-0.0011,-0.0053,-0.0054,-0.0068,-0.0076,-0.0025,-0.0079,-0.008,-0.0081,-0.0081,0,0.0092,0.0103,0.0115,0.0134,0.0136,0.0147,0.0157,0.0159,0.0148,0.0132,0.0105,0.0085,0.0054,0.0032,-0.0019,-0.0005,-0.0042,-0.006,-0.0062,-0.007,-0.0067,-0.0082,-0.0089,-0.0088,-0.0088,-0.0087,-0.0087,0,0.009,0.0107,0.0119,0.0125,0.0147,0.0151,0.0162,0.0164,0.0171,0.0146,0.0145,0.0099,0.0082,0.0029,-0.0023,-0.0024,-0.0078,-0.0079,-0.0122,-0.0124,-0.0102,-0.01,-0.0126,-0.0125,-0.0125,-0.0125,-0.0125,0,0.0092,0.01,0.012,0.0127,0.0148,0.0157,0.0174,0.0175,0.0182,0.0197,0.0154,0.0153,0.008,0.0041,-0.0019,-0.0084,-0.0079,-0.0132,-0.0138,-0.0102,-0.0099,-0.0106,-0.0103,-0.0127,-0.0127,-0.0126,-0.0126,0,0.0084,0.0096,0.0113,0.0137,0.0148,0.016,0.0193,0.021,0.0211,0.0229,0.0224,0.0193,0.0139,0.0066,-0.0011,-0.0067,-0.013,-0.0156,-0.012,-0.0122,-0.0174,-0.0171,-0.0218,-0.0218,-0.0219,-0.0219,-0.022,0,0.0081,0.0088,0.012,0.0138,0.015,0.0174,0.02,0.0218,0.0243,0.0259,0.0273,0.0229,0.0195,0.0086,-0.0003,-0.0126,-0.0142,-0.0186,-0.0184,-0.0183,-0.0184,-0.018,-0.0175,-0.0221,-0.0221,-0.0221,-0.0221,0,0.0076,0.0085,0.0105,0.0145,0.0175,0.0209,0.0246,0.0271,0.0299,0.0303,0.0316,0.0256,0.0195,0.0094,-0.0003,-0.0089,-0.0162,-0.0192,-0.0191,-0.0191,-0.0187,-0.0187,-0.0182,-0.0223,-0.0223,-0.0222,-0.0222,0,0.0074,0.0087,0.0117,0.0153,0.0194,0.0238,0.0256,0.0296,0.0322,0.0348,0.035,0.0285,0.0246,0.0113,0.0028,-0.0064,-0.0092,-0.0125,-0.0129,-0.0128,-0.0088,-0.007,-0.0081,0,0,0,0,0,0.0074,0.0094,0.0127,0.0171,0.0213,0.0236,0.029,0.031,0.0343,0.036,0.0359,0.0304,0.0181,0.013,0.0038,-0.0002,-0.0123,-0.0116,-0.0166,-0.0233,-0.0231,-0.02,0,0,0,0,0,0,0.0075,0.0104,0.0125,0.0181,0.0212,0.0262,0.0296,0.032,0.0333,0.0352,0.0293,0.027,0.0151,0.0233,0.0032,0.0004,-0.0043,-0.0172,-0.0174,-0.0234,-0.0232,-0.0231,-0.0198,0,0,0,0,0]}]]